[[{"header":{"parameterUnit":"m.s-1","parameterCategory":1,"la1":30.2992,"la2":30.254,"lo1":-89.0895,"lo2":-89.0443,"dy":0.0025,"dx":0.0025,"nx":19,"ny":19,"refTime":"2026-05-14T21:00:00:Z","depth":0,"parameterNumber":2,"parameterNumberName":"U-component_of_WINDS"},"data":[0,0,0,-1.2232,-1.2231,-1.2167,-1.2167,-1.2097,-1.2097,0,0,0,0,0,0,0,0,0,0,0,-1.2259,-1.2259,-1.2232,-1.2231,-1.2167,-1.2167,-1.2097,-1.2097,0,0,0,0,0,0,0,0,0,0,0,-1.2259,-1.2259,-1.2259,-1.2231,-1.2168,-1.2167,-1.2098,-1.2141,0,0,0,0,0,0,0,0,0,0,-1.2201,-1.2234,-1.2259,-1.2259,-1.223,-1.2168,-1.2167,-1.2143,-1.2138,-1.2131,0,-1.2128,0,-1.2111,-1.2093,-1.2093,0,0,0,-1.2225,-1.2238,-1.2213,-1.2259,-1.223,-1.2168,-1.2194,-1.214,-1.2135,-1.2125,-1.2127,-1.2124,-1.211,-1.2093,-1.2092,-1.2073,-1.2073,0,0,-1.2228,-1.2252,-1.2217,-1.221,-1.2222,-1.2196,-1.2192,-1.2137,-1.214,-1.2127,-1.2122,-1.2109,-1.2092,-1.2092,-1.2073,-1.2073,0,0,0,-1.2242,-1.2254,-1.2231,-1.2213,-1.2201,-1.2195,-1.219,-1.2142,-1.2133,-1.2121,-1.2108,-1.2092,-1.2091,-1.2072,-1.2073,-1.2104,0,0,0,-1.2244,-1.2263,-1.2233,-1.2247,-1.2203,-1.2171,-1.2197,-1.2137,-1.213,-1.2109,-1.2092,-1.2091,-1.2072,-1.2072,-1.2103,-1.2115,0,0,0,-1.226,-1.2264,-1.2258,-1.2248,-1.2222,-1.2172,-1.2159,-1.2135,-1.2122,-1.2093,-1.209,-1.2072,-1.2072,-1.2102,-1.2113,-1.2116,0,0,0,-1.2284,-1.2288,-1.2259,-1.2258,-1.2222,-1.2192,-1.2159,-1.2135,-1.2114,-1.2092,-1.2072,-1.2073,-1.2101,-1.2112,-1.2115,-1.2122,-1.2127,0,0,-1.2302,-1.2291,-1.2288,-1.2261,-1.2242,-1.22,-1.2185,-1.2143,-1.2119,-1.2089,-1.2088,-1.2104,-1.2113,-1.2116,-1.2152,-1.2156,0,0,0,-1.2302,-1.23,-1.229,-1.2271,-1.2239,-1.2212,-1.217,-1.2155,-1.2128,-1.2109,-1.2105,-1.211,-1.2111,-1.2113,-1.2117,-1.2115,-1.2075,-1.2075,-1.2075,-1.236,-1.2329,-1.2322,-1.2282,-1.2264,-1.222,-1.2202,-1.2173,-1.2147,-1.2147,-1.2137,-1.2163,-1.2167,-1.2169,-1.2168,-1.2139,-1.2139,-1.214,-1.214,-1.2382,-1.2374,-1.2339,-1.2319,-1.2286,-1.2269,-1.2226,-1.2208,-1.2186,-1.2168,-1.2167,-1.2148,-1.2175,-1.2172,-1.2142,-1.2141,-1.2141,-1.2141,-1.2141,-1.2416,-1.2407,-1.2388,-1.2355,-1.2334,-1.2294,-1.2274,-1.2245,-1.2216,-1.2215,-1.2201,-1.2201,-1.2195,-1.2211,-1.2211,-1.2211,-1.2211,-1.2211,-1.2211,-1.2458,-1.2436,-1.2423,-1.2389,-1.2372,-1.2346,-1.2301,-1.2283,-1.2255,-1.2235,-1.2235,-1.2208,-1.2184,-1.2178,-1.2212,-1.2212,-1.2212,-1.2212,-1.2212,-1.2491,-1.2478,-1.2459,-1.2442,-1.2399,-1.2379,-1.2341,-1.2307,-1.2287,-1.2278,-1.2251,-1.2239,-1.2226,-1.2222,-1.2217,-1.2259,-1.2259,-1.2259,-1.2259,-1.2518,-1.2509,-1.2482,-1.2456,-1.2427,-1.2391,-1.2369,-1.2333,-1.2295,-1.2281,-1.227,-1.2261,-1.2259,-1.2247,-1.2243,-1.2237,-1.2284,-1.2284,-1.2284,-1.2536,-1.2522,-1.2509,-1.2472,-1.2435,-1.2404,-1.2382,-1.2353,-1.2306,-1.2284,-1.2268,-1.2267,-1.2252,-1.2249,-1.2226,-1.2221,-1.221,0,0]},{"header":{"parameterUnit":"m.s-1","parameterCategory":1,"la1":30.2992,"la2":30.254,"lo1":-89.0895,"lo2":-89.0443,"dy":0.0025,"dx":0.0025,"nx":19,"ny":19,"refTime":"2026-05-14T21:00:00:Z","depth":0,"parameterNumber":3,"parameterNumberName":"V-component_of_WINDS"},"data":[0,0,0,-2.0515,-2.0516,-2.058,-2.058,-2.0646,-2.0647,0,0,0,0,0,0,0,0,0,0,0,-2.0489,-2.0489,-2.0515,-2.0516,-2.058,-2.058,-2.0646,-2.0647,0,0,0,0,0,0,0,0,0,0,0,-2.0489,-2.0489,-2.049,-2.0517,-2.058,-2.058,-2.0646,-2.0603,0,0,0,0,0,0,0,0,0,0,-2.0544,-2.0513,-2.0489,-2.049,-2.0517,-2.0579,-2.058,-2.0601,-2.0606,-2.0612,0,-2.0617,0,-2.0633,-2.065,-2.065,0,0,0,-2.0521,-2.0509,-2.0533,-2.049,-2.0517,-2.0579,-2.0552,-2.0604,-2.0609,-2.0618,-2.0618,-2.0621,-2.0634,-2.0651,-2.0651,-2.0675,-2.0675,0,0,-2.0518,-2.0496,-2.053,-2.0536,-2.0528,-2.055,-2.0554,-2.0607,-2.0605,-2.0618,-2.0623,-2.0635,-2.0651,-2.0651,-2.0675,-2.0675,0,0,0,-2.0504,-2.0493,-2.0516,-2.0533,-2.0546,-2.0552,-2.0557,-2.0603,-2.0612,-2.0623,-2.0636,-2.0651,-2.0652,-2.0675,-2.0675,-2.0649,0,0,0,-2.0503,-2.0486,-2.0515,-2.0502,-2.0545,-2.0576,-2.0551,-2.0609,-2.0615,-2.0636,-2.0651,-2.0652,-2.0675,-2.0675,-2.065,-2.0639,0,0,0,-2.0487,-2.0484,-2.0491,-2.0501,-2.0527,-2.0575,-2.0588,-2.0611,-2.0623,-2.065,-2.0653,-2.0675,-2.0675,-2.0651,-2.0641,-2.0639,0,0,0,-2.0464,-2.0466,-2.049,-2.0497,-2.0527,-2.056,-2.0588,-2.0613,-2.0634,-2.0652,-2.0675,-2.0675,-2.0651,-2.0642,-2.064,-2.0632,-2.0628,0,0,-2.0454,-2.0464,-2.0469,-2.0493,-2.0516,-2.0552,-2.057,-2.0609,-2.063,-2.0658,-2.0659,-2.0649,-2.0641,-2.0639,-2.0612,-2.0608,0,0,0,-2.0459,-2.0462,-2.0473,-2.0493,-2.0524,-2.0549,-2.0588,-2.0602,-2.0628,-2.0641,-2.065,-2.0645,-2.0645,-2.0642,-2.0639,-2.064,-2.0673,-2.0673,-2.0673,-2.0411,-2.0441,-2.0452,-2.0489,-2.0508,-2.0548,-2.0566,-2.0592,-2.0614,-2.0616,-2.0624,-2.0604,-2.0601,-2.0598,-2.0599,-2.0624,-2.0624,-2.0624,-2.0624,-2.0398,-2.0407,-2.0439,-2.0461,-2.0492,-2.051,-2.0549,-2.0565,-2.0585,-2.0601,-2.0602,-2.0614,-2.0593,-2.0595,-2.0622,-2.0622,-2.0622,-2.0623,-2.0623,-2.0368,-2.0378,-2.0397,-2.043,-2.0451,-2.0489,-2.0508,-2.0535,-2.056,-2.0562,-2.0572,-2.0573,-2.0575,-2.0565,-2.0565,-2.0565,-2.0565,-2.0565,-2.0565,-2.0329,-2.0352,-2.0366,-2.04,-2.0417,-2.0443,-2.0484,-2.0501,-2.0526,-2.0544,-2.0545,-2.0566,-2.0587,-2.0591,-2.0564,-2.0564,-2.0564,-2.0564,-2.0564,-2.0301,-2.0313,-2.0333,-2.035,-2.0393,-2.0412,-2.0448,-2.048,-2.0498,-2.0506,-2.0529,-2.054,-2.0551,-2.0554,-2.0557,-2.0523,-2.0523,-2.0523,-2.0523,-2.0275,-2.0285,-2.0312,-2.0338,-2.0366,-2.0401,-2.0422,-2.0455,-2.049,-2.0503,-2.0512,-2.0519,-2.0521,-2.0531,-2.0534,-2.0537,-2.0499,-2.0499,-2.0499,-2.0259,-2.0272,-2.0285,-2.0322,-2.0359,-2.0388,-2.0409,-2.0435,-2.0478,-2.0499,-2.0513,-2.0514,-2.0526,-2.0528,-2.0547,-2.0551,-2.0558,0,0]}]]